Terug naar catalogus

CZ-4B DEB

ActiefLEO
NORAD 46471·DEBRIS·🇨🇳 China

Gelanceerd Sep 21, 2020 vanaf Jiuquan Satellite Launch Center

Loading…

Volgende Passages (komende 24 uur)

TLE

VersSource: Space-Track

Epoch: Sep 14, 2026, 12:47 UTC

1 46471U 20066C   26257.53311713  .00000019  00000-0  81905-4 0  9999
2 46471  66.0782 318.7622 0026414 145.6931 214.5853 13.89488775303361

Volg CZ-4B DEB in realtime met AllMySat

Download on the App Store